Total_Precipitation_Accumulation
0.33 0.24 0.26 0.29 0.26 0.25 0.39 0.41 0.31 0.16 0.14 0.15 0.14 0.15 0.17 0.18 0.18 0.17 0.14 0.17 0.24 0.27 0.28 0.33 0.41 0.50 0.53 0.49 0.45 0.42 0.47 0.55 0.61 0.65 0.72 0.75 0.76 0.87 1.05 1.02 0.89 0.81 0.78 0.81
0.27 0.19 0.21 0.22 0.19 0.20 0.22 0.22 0.19 0.13 0.14 0.16 0.15 0.13 0.14 0.17 0.19 0.21 0.20 0.20 0.24 0.29 0.28 0.34 0.41 0.51 0.60 0.53 0.47 0.40 0.43 0.50 0.56 0.65 0.78 0.80 0.75 0.79 0.89 0.98 0.94 0.85 0.80 0.78
0.40 0.19 0.34 0.39 0.26 0.24 0.23 0.20 0.23 0.25 0.20 0.16 0.16 0.16 0.18 0.21 0.21 0.23 0.23 0.25 0.27 0.30 0.34 0.39 0.42 0.49 0.58 0.55 0.51 0.44 0.44 0.50 0.55 0.58 0.72 0.79 0.79 0.83 0.86 0.90 0.97 0.98 0.87 0.78
0.67 0.47 0.72 0.35 0.18 0.19 0.22 0.24 0.26 0.24 0.18 0.16 0.18 0.18 0.18 0.22 0.25 0.27 0.26 0.26 0.28 0.32 0.38 0.38 0.41 0.43 0.49 0.51 0.49 0.47 0.47 0.53 0.57 0.55 0.60 0.73 0.83 0.84 0.85 0.85 0.87 0.94 0.93 0.84
1.04 0.75 0.43 0.20 0.17 0.22 0.27 0.30 0.23 0.18 0.16 0.14 0.13 0.12 0.13 0.13 0.19 0.26 0.27 0.26 0.28 0.32 0.37 0.38 0.37 0.37 0.43 0.49 0.47 0.49 0.54 0.57 0.58 0.53 0.54 0.64 0.73 0.80 0.83 0.84 0.79 0.81 0.85 0.84
1.20 0.90 0.43 0.27 0.18 0.15 0.21 0.38 0.22 0.17 0.18 0.16 0.15 0.21 0.17 0.13 0.18 0.25 0.23 0.23 0.27 0.30 0.31 0.34 0.37 0.36 0.42 0.46 0.42 0.46 0.50 0.56 0.53 0.48 0.45 0.45 0.56 0.71 0.78 0.80 0.76 0.75 0.77 0.79
1.04 0.81 0.36 0.25 0.19 0.17 0.34 0.43 0.21 0.18 0.18 0.17 0.20 0.25 0.20 0.17 0.21 0.23 0.18 0.19 0.23 0.26 0.29 0.36 0.38 0.35 0.39 0.44 0.43 0.46 0.49 0.54 0.49 0.45 0.45 0.44 0.50 0.64 0.73 0.80 0.82 0.76 0.73 0.75
0.77 0.86 0.47 0.26 0.26 0.39 0.44 0.25 0.17 0.15 0.15 0.15 0.14 0.12 0.13 0.15 0.20 0.21 0.17 0.16 0.16 0.20 0.25 0.31 0.34 0.34 0.39 0.45 0.46 0.48 0.50 0.47 0.46 0.47 0.48 0.49 0.51 0.59 0.70 0.80 0.86 0.80 0.72 0.71
0.56 0.50 0.35 0.29 0.36 0.36 0.28 0.19 0.14 0.14 0.13 0.12 0.12 0.11 0.13 0.16 0.18 0.20 0.19 0.18 0.17 0.19 0.22 0.28 0.31 0.33 0.40 0.46 0.43 0.46 0.46 0.44 0.43 0.46 0.47 0.49 0.54 0.61 0.70 0.78 0.82 0.80 0.73 0.68
0.40 0.28 0.23 0.24 0.26 0.25 0.20 0.16 0.14 0.14 0.13 0.13 0.12 0.12 0.14 0.17 0.18 0.19 0.19 0.18 0.18 0.20 0.23 0.29 0.32 0.33 0.38 0.43 0.39 0.38 0.39 0.42 0.40 0.44 0.49 0.53 0.57 0.62 0.67 0.76 0.84 0.76 0.69 0.65
0.36 0.22 0.19 0.19 0.20 0.20 0.17 0.15 0.14 0.15 0.15 0.13 0.13 0.14 0.15 0.17 0.18 0.19 0.22 0.21 0.20 0.22 0.23 0.30 0.34 0.36 0.40 0.38 0.36 0.35 0.35 0.42 0.47 0.49 0.54 0.58 0.61 0.63 0.66 0.68 0.83 0.80 0.69 0.68
0.33 0.23 0.24 0.23 0.20 0.19 0.18 0.17 0.18 0.18 0.17 0.14 0.15 0.18 0.17 0.17 0.19 0.21 0.24 0.25 0.23 0.24 0.26 0.31 0.35 0.42 0.42 0.36 0.34 0.36 0.39 0.42 0.49 0.54 0.55 0.56 0.56 0.59 0.67 0.69 0.73 0.72 0.68 0.68
0.20 0.19 0.21 0.20 0.18 0.17 0.17 0.17 0.17 0.17 0.18 0.16 0.15 0.18 0.21 0.21 0.20 0.21 0.24 0.28 0.30 0.29 0.31 0.34 0.37 0.42 0.41 0.35 0.32 0.33 0.39 0.43 0.48 0.54 0.52 0.50 0.49 0.49 0.54 0.65 0.74 0.74 0.71 0.68
0.11 0.14 0.16 0.15 0.14 0.13 0.13 0.13 0.13 0.13 0.13 0.14 0.15 0.16 0.19 0.20 0.18 0.20 0.24 0.30 0.34 0.33 0.33 0.35 0.36 0.39 0.39 0.33 0.31 0.32 0.37 0.44 0.46 0.49 0.50 0.48 0.47 0.47 0.48 0.54 0.64 0.69 0.72 0.71
0.07 0.09 0.11 0.09 0.08 0.08 0.09 0.10 0.10 0.10 0.10 0.10 0.11 0.13 0.16 0.20 0.21 0.22 0.27 0.32 0.35 0.34 0.33 0.36 0.39 0.44 0.41 0.33 0.31 0.33 0.38 0.39 0.39 0.43 0.48 0.49 0.49 0.50 0.51 0.53 0.56 0.61 0.66 0.77
0.07 0.07 0.08 0.07 0.08 0.08 0.09 0.10 0.10 0.09 0.09 0.09 0.10 0.11 0.14 0.19 0.23 0.28 0.31 0.34 0.36 0.37 0.37 0.39 0.42 0.46 0.43 0.35 0.33 0.33 0.39 0.46 0.43 0.44 0.48 0.51 0.52 0.55 0.59 0.61 0.63 0.63 0.66 0.73
0.13 0.12 0.10 0.09 0.08 0.08 0.09 0.09 0.09 0.09 0.09 0.09 0.10 0.11 0.12 0.16 0.20 0.25 0.29 0.34 0.36 0.37 0.37 0.39 0.43 0.46 0.44 0.41 0.38 0.36 0.38 0.43 0.49 0.47 0.46 0.48 0.53 0.57 0.61 0.66 0.68 0.64 0.60 0.67
0.17 0.15 0.12 0.11 0.10 0.09 0.08 0.07 0.07 0.09 0.10 0.10 0.11 0.12 0.13 0.17 0.21 0.26 0.31 0.33 0.33 0.37 0.41 0.41 0.44 0.47 0.46 0.47 0.44 0.41 0.41 0.43 0.44 0.45 0.46 0.50 0.54 0.57 0.63 0.68 0.67 0.67 0.66 0.71
0.13 0.13 0.11 0.10 0.10 0.09 0.09 0.09 0.09 0.10 0.10 0.11 0.12 0.13 0.15 0.18 0.22 0.26 0.31 0.32 0.32 0.35 0.40 0.43 0.48 0.46 0.46 0.50 0.50 0.44 0.45 0.46 0.47 0.46 0.46 0.57 0.60 0.58 0.62 0.67 0.70 0.70 0.71 0.73
0.13 0.12 0.10 0.09 0.09 0.09 0.10 0.11 0.10 0.10 0.10 0.11 0.13 0.14 0.15 0.18 0.22 0.25 0.29 0.31 0.32 0.36 0.38 0.42 0.44 0.44 0.45 0.52 0.55 0.49 0.50 0.52 0.52 0.49 0.50 0.55 0.61 0.63 0.65 0.68 0.71 0.73 0.73 0.73
0.13 0.11 0.10 0.09 0.09 0.09 0.11 0.12 0.11 0.11 0.11 0.12 0.16 0.19 0.20 0.23 0.24 0.26 0.27 0.27 0.28 0.32 0.35 0.40 0.40 0.41 0.43 0.53 0.61 0.56 0.55 0.55 0.55 0.54 0.54 0.57 0.62 0.66 0.68 0.69 0.71 0.73 0.74 0.75
0.14 0.13 0.12 0.10 0.10 0.12 0.14 0.14 0.15 0.14 0.13 0.14 0.17 0.20 0.22 0.24 0.24 0.25 0.25 0.26 0.28 0.34 0.35 0.35 0.35 0.40 0.48 0.55 0.57 0.56 0.55 0.55 0.56 0.58 0.60 0.61 0.66 0.71 0.70 0.69 0.74 0.74 0.74 0.76
0.16 0.15 0.16 0.16 0.16 0.18 0.16 0.15 0.17 0.17 0.16 0.17 0.18 0.22 0.24 0.26 0.26 0.27 0.28 0.28 0.30 0.37 0.36 0.36 0.39 0.46 0.55 0.53 0.52 0.54 0.54 0.56 0.57 0.60 0.64 0.66 0.69 0.72 0.74 0.73 0.74 0.76 0.79 0.80
0.19 0.18 0.19 0.20 0.20 0.20 0.18 0.17 0.18 0.20 0.21 0.21 0.21 0.23 0.26 0.27 0.26 0.27 0.30 0.35 0.39 0.42 0.39 0.43 0.48 0.51 0.56 0.52 0.51 0.54 0.58 0.61 0.62 0.66 0.70 0.72 0.74 0.76 0.76 0.75 0.76 0.75 0.77 0.79
0.22 0.21 0.21 0.21 0.21 0.23 0.23 0.21 0.20 0.21 0.22 0.24 0.24 0.24 0.28 0.31 0.34 0.33 0.34 0.38 0.42 0.45 0.44 0.49 0.52 0.54 0.53 0.54 0.55 0.58 0.64 0.67 0.72 0.81 0.83 0.79 0.77 0.78 0.74 0.71 0.75 0.79 0.79 0.77
0.26 0.26 0.26 0.26 0.27 0.27 0.26 0.25 0.24 0.24 0.23 0.25 0.27 0.29 0.33 0.36 0.37 0.38 0.39 0.41 0.44 0.47 0.48 0.48 0.50 0.54 0.57 0.62 0.65 0.67 0.73 0.76 0.79 0.78 0.74 0.72 0.72 0.72 0.71 0.69 0.72 0.76 0.77 0.76
0.30 0.30 0.30 0.31 0.32 0.31 0.31 0.32 0.33 0.33 0.32 0.34 0.37 0.36 0.38 0.41 0.44 0.46 0.46 0.47 0.48 0.50 0.52 0.53 0.56 0.61 0.66 0.70 0.73 0.76 0.79 0.79 0.79 0.77 0.74 0.73 0.72 0.71 0.69 0.70 0.72 0.74 0.73 0.70